Temp
-8 -7 -7 -7 -7 -7 -7 -7 -7 -6 -7 -7 -7 -7 -7 -7 -7 -7 -7 -7 -7 -7 -7 -7 -7 -8 -8 -8 -8 -8 -8 -8 -8 -7 -7 -7 -7 -7 -7 -7 -7 -7 -8
-8 -8 -8 -7 -7 -7 -7 -7 -7 -7 -7 -7 -7 -7 -7 -7 -7 -7 -7 -7 -7 -8 -8 -8 -8 -8 -8 -8 -8 -8 -8 -8 -8 -7 -7 -7 -7 -7 -7 -7 -7 -8 -8
-8 -8 -7 -7 -7 -7 -7 -7 -7 -7 -7 -7 -7 -7 -7 -7 -7 -7 -7 -8 -8 -8 -8 -8 -8 -8 -8 -8 -8 -8 -8 -8 -8 -7 -7 -7 -7 -7 -7 -7 -7 -7 -8
-8 -8 -8 -8 -7 -7 -7 -7 -7 -7 -7 -7 -7 -7 -7 -7 -7 -8 -8 -8 -8 -8 -8 -8 -9 -9 -8 -8 -8 -8 -8 -8 -8 -8 -7 -7 -7 -7 -7 -7 -7 -8 -8
-8 -8 -8 -8 -7 -7 -7 -7 -7 -7 -7 -7 -7 -7 -8 -8 -8 -8 -8 -8 -8 -8 -9 -9 -9 -9 -9 -8 -8 -8 -8 -8 -8 -8 -8 -8 -8 -7 -7 -8 -8 -8 -8
-8 -8 -8 -8 -8 -8 -8 -8 -7 -7 -7 -7 -7 -7 -8 -8 -8 -8 -8 -8 -9 -9 -9 -9 -9 -9 -9 -9 -8 -8 -8 -8 -8 -8 -8 -8 -8 -8 -8 -8 -8 -8 -8
-9 -8 -8 -8 -8 -8 -8 -8 -8 -7 -7 -7 -7 -8 -8 -8 -8 -8 -8 -9 -9 -9 -9 -9 -9 -9 -9 -9 -9 -9 -8 -8 -8 -8 -8 -8 -8 -8 -8 -8 -8 -8 -8
-9 -8 -8 -8 -8 -8 -8 -8 -8 -7 -7 -7 -7 -8 -8 -8 -8 -8 -9 -9 -9 -9 -9 -9 -9 -9 -9 -9 -9 -9 -9 -8 -8 -8 -8 -8 -8 -8 -8 -8 -8 -8 -8
-9 -9 -8 -8 -8 -8 -8 -8 -8 -8 -7 -8 -8 -8 -8 -8 -9 -9 -9 -9 -9 -9 -9 -9 -9 -9 -9 -9 -9 -9 -9 -9 -9 -8 -8 -8 -8 -8 -8 -8 -8 -8 -9
-9 -9 -8 -8 -8 -8 -8 -8 -8 -8 -8 -8 -8 -8 -8 -8 -9 -9 -9 -9 -9 -9 -9 -9 -9 -9 -9 -9 -9 -9 -9 -9 -9 -9 -8 -8 -8 -8 -8 -8 -8 -9 -9
-9 -9 -8 -8 -8 -8 -8 -8 -8 -8 -8 -8 -8 -8 -8 -9 -9 -9 -9 -9 -9 -9 -9 -9 -9 -9 -9 -9 -9 -9 -9 -9 -9 -9 -9 -9 -8 -8 -9 -8 -9 -9 -9
-10 -10 -9 -9 -8 -9 -8 -8 -8 -8 -8 -8 -8 -8 -9 -9 -9 -9 -9 -9 -9 -9 -9 -9 -9 -9 -9 -9 -9 -9 -9 -9 -9 -9 -9 -9 -9 -9 -9 -9 -9 -9 -9
-10 -10 -9 -9 -9 -9 -9 -9 -8 -8 -8 -8 -8 -8 -9 -9 -9 -9 -9 -9 -9 -9 -9 -9 -9 -9 -9 -9 -9 -9 -9 -9 -9 -9 -9 -9 -9 -9 -9 -9 -9 -9 -9
-10 -10 -10 -10 -9 -9 -9 -9 -8 -9 -8 -8 -9 -9 -9 -9 -9 -9 -9 -9 -9 -9 -9 -9 -9 -9 -9 -9 -9 -9 -9 -9 -9 -9 -9 -9 -9 -9 -9 -9 -9 -9 -9
-11 -10 -10 -10 -10 -9 -9 -9 -9 -9 -9 -9 -9 -9 -9 -9 -9 -9 -9 -9 -9 -9 -9 -9 -9 -9 -9 -9 -9 -9 -9 -9 -9 -9 -9 -9 -9 -9 -9 -10 -10 -10 -9
-11 -11 -10 -10 -10 -10 -10 -9 -9 -9 -9 -9 -9 -9 -9 -9 -9 -9 -9 -9 -9 -9 -9 -9 -9 -9 -9 -9 -9 -9 -9 -9 -9 -9 -10 -10 -10 -10 -10 -10 -10 -10 -9
-11 -11 -11 -10 -10 -10 -10 -10 -10 -10 -9 -9 -9 -9 -9 -10 -10 -9 -9 -9 -10 -10 -10 -10 -10 -9 -9 -10 -10 -10 -10 -9 -9 -10 -10 -10 -10 -10 -9 -10 -10 -10 -10
-10 -11 -11 -10 -10 -10 -10 -10 -10 -10 -10 -10 -10 -10 -10 -10 -10 -10 -10 -10 -10 -10 -10 -10 -10 -10 -10 -10 -10 -10 -10 -10 -10 -10 -10 -10 -10 -10 -10 -10 -10 -10 -10
-10 -10 -11 -10 -10 -10 -10 -10 -10 -10 -10 -10 -10 -10 -10 -10 -10 -10 -10 -10 -10 -10 -10 -10 -10 -10 -10 -10 -11 -11 -11 -11 -11 -11 -11 -10 -10 -10 -10 -10 -10 -10 -10
-11 -11 -11 -11 -11 -11 -11 -10 -10 -10 -10 -10 -10 -10 -10 -10 -10 -10 -10 -10 -11 -11 -11 -11 -11 -11 -11 -11 -11 -11 -11 -12 -12 -12 -11 -11 -11 -11 -11 -11 -11 -10 -10
-12 -11 -12 -11 -11 -11 -11 -11 -11 -11 -11 -11 -11 -11 -11 -11 -11 -11 -11 -11 -11 -11 -11 -11 -11 -12 -12 -12 -12 -12 -12 -12 -12 -12 -12 -12 -12 -11 -11 -12 -11 -11 -10
-13 -12 -11 -10 -11 -12 -11 -11 -11 -11 -11 -11 -11 -11 -11 -11 -11 -11 -11 -12 -11 -11 -11 -11 -12 -12 -12 -12 -12 -12 -12 -12 -12 -12 -12 -12 -12 -12 -12 -12 -12 -11 -11
-13 -13 -12 -11 -11 -12 -12 -12 -11 -11 -11 -11 -11 -11 -11 -12 -12 -12 -12 -12 -12 -12 -12 -12 -11 -12 -12 -12 -13 -13 -12 -12 -12 -12 -13 -12 -12 -12 -12 -12 -12 -11 -11
-13 -13 -15 -13 -12 -12 -13 -12 -12 -13 -12 -12 -12 -12 -12 -13 -12 -12 -12 -12 -12 -12 -11 -11 -12 -12 -12 -12 -12 -13 -12 -12 -12 -12 -12 -12 -13 -13 -12 -12 -12 -11 -11
-14 -13 -13 -15 -12 -12 -13 -13 -13 -12 -12 -12 -13 -13 -13 -13 -12 -13 -13 -12 -12 -11 -12 -12 -12 -12 -12 -11 -12 -12 -12 -12 -12 -12 -13 -13 -13 -12 -12 -12 -12 -12 -12
-14 -13 -13 -13 -13 -12 -13 -12 -13 -13 -13 -13 -14 -13 -13 -13 -13 -13 -13 -12 -12 -12 -12 -12 -12 -12 -12 -12 -12 -12 -13 -14 -14 -13 -13 -13 -13 -13 -13 -12 -12 -12 -12
Height
5838 5840 5842 5844 5845 5847 5850 5852 5853 5854 5856 5858 5859 5860 5861 5862 5863 5864 5865 5865 5866 5866 5866 5866 5866 5865 5865 5864 5864 5863 5863 5862 5862 5861 5860 5859 5858 5858 5857 5856 5856 5855 5855
5836 5838 5840 5841 5843 5845 5848 5850 5852 5853 5855 5857 5859 5860 5861 5862 5863 5864 5865 5865 5866 5866 5866 5866 5866 5866 5865 5865 5864 5864 5863 5863 5862 5861 5860 5859 5858 5857 5857 5857 5856 5855 5855
5833 5835 5837 5839 5841 5843 5846 5848 5850 5852 5853 5855 5858 5859 5861 5862 5863 5864 5864 5865 5866 5866 5866 5866 5866 5865 5865 5865 5864 5864 5864 5864 5863 5862 5861 5859 5859 5858 5857 5856 5855 5854 5854
5830 5832 5834 5837 5838 5841 5844 5846 5849 5851 5853 5854 5856 5858 5859 5861 5862 5863 5864 5864 5865 5866 5866 5866 5865 5865 5865 5864 5864 5864 5864 5864 5863 5863 5862 5860 5860 5859 5858 5857 5856 5854 5853
5826 5828 5830 5833 5836 5839 5842 5845 5847 5849 5851 5853 5855 5857 5858 5860 5861 5862 5863 5864 5864 5865 5865 5865 5864 5864 5864 5863 5863 5863 5863 5863 5863 5862 5861 5861 5860 5859 5858 5857 5855 5854 5852
5821 5824 5827 5830 5834 5837 5839 5842 5845 5847 5849 5851 5853 5855 5857 5858 5860 5861 5862 5863 5863 5864 5864 5864 5863 5863 5863 5862 5862 5862 5862 5863 5862 5862 5861 5861 5860 5859 5858 5856 5855 5853 5851
5817 5821 5824 5827 5830 5834 5837 5839 5842 5845 5847 5849 5851 5853 5855 5856 5858 5859 5860 5861 5862 5863 5863 5863 5863 5862 5862 5862 5861 5861 5861 5861 5861 5861 5861 5860 5859 5858 5857 5855 5854 5852 5850
5812 5816 5820 5823 5826 5830 5834 5837 5839 5842 5845 5847 5849 5851 5853 5854 5856 5857 5859 5860 5861 5861 5862 5862 5862 5861 5861 5861 5860 5860 5859 5859 5859 5859 5859 5858 5857 5856 5855 5854 5852 5850 5848
5807 5811 5815 5819 5823 5826 5830 5833 5836 5839 5842 5844 5847 5849 5850 5852 5854 5855 5857 5858 5859 5860 5860 5861 5860 5860 5860 5859 5859 5858 5857 5857 5857 5857 5857 5856 5855 5854 5853 5852 5850 5848 5846
5801 5805 5809 5813 5818 5821 5825 5829 5833 5836 5839 5841 5844 5846 5848 5850 5852 5853 5855 5856 5857 5858 5858 5858 5858 5858 5858 5858 5857 5856 5856 5855 5855 5855 5855 5854 5853 5852 5851 5849 5847 5845 5843
5795 5800 5804 5808 5812 5817 5821 5825 5829 5832 5835 5838 5841 5843 5845 5847 5849 5851 5852 5853 5854 5855 5856 5856 5856 5856 5856 5856 5856 5855 5854 5854 5853 5853 5852 5852 5851 5849 5848 5846 5844 5843 5841
5790 5793 5797 5802 5807 5812 5817 5820 5825 5828 5831 5835 5838 5841 5843 5844 5846 5848 5849 5850 5851 5852 5853 5853 5853 5854 5854 5854 5853 5853 5852 5852 5851 5850 5849 5849 5848 5847 5845 5844 5841 5840 5838
5783 5786 5791 5795 5801 5806 5811 5816 5820 5824 5827 5831 5834 5837 5840 5842 5843 5845 5846 5847 5848 5849 5850 5851 5851 5851 5851 5851 5851 5851 5850 5850 5849 5848 5847 5846 5845 5844 5842 5840 5838 5837 5835
5776 5780 5784 5788 5795 5800 5805 5810 5815 5820 5823 5827 5830 5833 5836 5838 5840 5841 5842 5844 5846 5847 5847 5848 5848 5849 5849 5848 5848 5847 5847 5846 5846 5845 5844 5843 5841 5840 5838 5836 5835 5833 5831
5767 5774 5779 5783 5787 5793 5798 5803 5809 5814 5818 5822 5826 5829 5832 5835 5836 5838 5839 5841 5842 5843 5844 5845 5845 5845 5845 5845 5845 5844 5843 5843 5842 5841 5840 5839 5838 5836 5834 5832 5830 5828 5826
5758 5765 5772 5777 5782 5788 5793 5798 5803 5808 5813 5816 5820 5823 5827 5830 5832 5834 5836 5837 5838 5840 5840 5841 5841 5841 5841 5841 5841 5840 5839 5839 5838 5837 5836 5835 5833 5832 5830 5828 5826 5824 5822
5747 5754 5763 5770 5774 5781 5787 5792 5796 5801 5806 5810 5814 5817 5821 5825 5827 5830 5832 5833 5835 5836 5837 5837 5837 5837 5837 5836 5836 5836 5835 5834 5833 5832 5831 5830 5828 5827 5825 5823 5822 5819 5817
5733 5743 5752 5761 5768 5771 5778 5785 5789 5794 5799 5804 5808 5812 5815 5818 5821 5824 5827 5828 5830 5831 5832 5832 5832 5832 5832 5831 5831 5830 5829 5828 5828 5826 5825 5824 5822 5821 5819 5818 5816 5814 5811
5718 5734 5744 5752 5760 5765 5769 5775 5781 5786 5792 5797 5802 5806 5810 5812 5815 5818 5821 5823 5825 5826 5827 5827 5827 5827 5826 5826 5825 5824 5823 5822 5821 5820 5819 5817 5816 5814 5813 5811 5809 5807 5805
5705 5723 5735 5741 5750 5755 5761 5765 5771 5779 5785 5790 5795 5799 5803 5806 5808 5811 5814 5816 5817 5819 5820 5820 5820 5820 5819 5819 5818 5817 5815 5814 5813 5812 5811 5810 5808 5806 5805 5804 5802 5799 5797
5706 5714 5720 5725 5736 5747 5754 5759 5765 5773 5779 5783 5787 5791 5794 5798 5802 5804 5806 5809 5810 5811 5812 5812 5812 5811 5811 5810 5809 5808 5807 5806 5804 5803 5802 5801 5800 5798 5797 5795 5793 5791 5789
5702 5704 5709 5706 5717 5731 5743 5751 5758 5762 5767 5771 5776 5782 5787 5790 5795 5797 5800 5802 5803 5803 5804 5804 5803 5802 5801 5800 5800 5799 5798 5796 5795 5793 5792 5791 5791 5790 5788 5786 5785 5783 5780
5692 5698 5700 5709 5712 5721 5731 5735 5743 5749 5755 5763 5771 5775 5778 5782 5785 5788 5791 5793 5795 5796 5796 5796 5794 5793 5791 5790 5789 5788 5788 5786 5786 5784 5783 5781 5780 5779 5777 5776 5774 5772 5770
5682 5687 5692 5695 5698 5712 5719 5727 5732 5742 5751 5758 5761 5763 5768 5772 5775 5779 5782 5784 5787 5788 5787 5786 5785 5783 5781 5780 5779 5777 5778 5778 5777 5777 5774 5772 5770 5768 5766 5765 5763 5762 5760
5670 5678 5683 5690 5694 5699 5707 5716 5724 5729 5735 5743 5746 5753 5758 5763 5765 5769 5772 5775 5777 5779 5779 5777 5776 5774 5772 5771 5770 5770 5770 5768 5767 5767 5765 5764 5762 5760 5757 5754 5753 5750 5747
5662 5669 5675 5684 5688 5695 5702 5705 5713 5721 5723 5728 5736 5742 5748 5752 5754 5758 5762 5765 5768 5769 5769 5768 5766 5766 5765 5764 5762 5761 5760 5760 5760 5759 5758 5756 5754 5750 5746 5743 5740 5737 5734
Wind_Speed
21 20 18 17 17 16 16 16 17 16 14 13 11 10 8 7 7 5 4 3 2 3 5 7 8 9 9 7 7 6 5 7 9 11 12 11 9 8 9 10 9 12 12
20 19 18 18 17 17 18 17 17 17 15 13 11 10 9 8 6 5 4 2 2 3 5 7 8 8 7 6 5 3 4 6 10 13 13 12 11 10 10 12 13 13 13
20 21 20 19 18 18 19 19 18 17 15 14 12 11 9 7 6 5 3 0 2 3 5 6 8 7 6 4 2 1 2 5 8 10 12 13 12 11 11 13 14 15 15
19 22 21 20 18 18 20 20 20 18 16 14 13 11 9 8 6 5 3 1 2 3 4 6 7 7 6 3 2 2 3 4 6 9 10 12 12 13 14 14 14 15 15
25 22 22 21 19 19 19 21 20 19 17 15 13 11 9 8 6 5 4 3 3 3 4 5 7 7 6 5 3 4 4 5 6 7 8 10 12 13 13 13 15 16 17
24 23 22 23 21 21 21 22 22 20 18 16 14 11 10 9 8 7 6 5 4 3 3 5 7 7 6 6 5 6 7 6 7 7 7 9 9 10 10 12 13 14 16
26 24 24 24 23 22 22 23 23 20 19 17 14 13 12 11 10 9 7 6 5 5 5 6 8 7 7 8 7 7 8 8 8 8 8 8 9 11 12 12 13 14 16
28 26 25 26 25 24 24 25 25 23 20 18 16 14 13 12 11 10 9 7 6 6 7 8 10 9 8 9 10 10 10 11 10 10 10 9 10 12 14 14 14 16 18
35 29 25 26 27 27 26 27 27 25 22 20 17 16 15 13 12 10 9 8 8 8 8 9 11 10 10 10 12 13 13 12 12 12 12 11 12 14 17 17 15 16 18
39 34 32 28 29 30 30 30 29 27 25 22 20 18 17 15 12 11 10 9 9 9 9 9 11 11 11 12 13 14 13 13 13 13 14 14 15 16 18 18 18 17 19
39 36 35 31 31 32 32 32 32 29 28 24 23 20 19 16 14 12 10 9 9 9 8 8 9 12 13 14 15 15 14 13 14 15 15 16 18 20 20 20 20 19 20
37 35 34 33 34 33 34 35 34 32 30 27 25 23 21 18 16 14 12 10 8 8 9 8 10 12 13 14 15 16 17 16 16 16 16 18 20 21 20 20 21 21 21
41 37 36 34 35 35 36 37 36 34 32 30 28 25 24 21 18 16 13 10 8 8 9 10 11 14 15 16 16 16 17 18 19 19 20 20 21 21 22 23 24 24 23
46 43 38 35 37 38 38 39 38 37 34 32 29 27 25 23 20 17 15 11 9 9 10 12 14 15 16 18 17 17 18 20 22 22 23 24 24 25 26 27 27 26 24
50 47 43 38 40 41 41 42 40 38 36 34 31 30 27 24 21 19 15 12 9 10 11 15 17 18 18 20 20 21 22 24 25 26 26 26 27 27 27 27 26 25 24
55 51 50 43 38 42 42 43 42 40 39 36 34 32 28 25 22 20 16 13 13 13 15 18 19 21 23 24 24 24 26 27 27 28 28 28 27 27 26 26 25 25 25
59 57 55 51 43 43 44 46 44 43 41 39 37 34 31 28 25 23 19 17 16 17 18 20 22 23 25 26 27 29 31 33 35 32 31 29 30 30 30 28 28 28 28
65 62 55 55 49 47 48 49 47 45 43 41 39 36 35 32 29 26 23 21 20 20 22 23 24 25 27 26 29 31 33 35 36 35 34 33 33 32 33 32 31 32 32
46 55 60 57 54 50 51 51 49 49 46 44 42 40 37 34 32 30 28 26 25 25 27 28 28 30 32 33 34 35 37 39 39 39 38 36 35 36 36 36 36 36 36
34 56 59 65 59 54 53 53 53 51 49 46 44 42 40 38 36 33 32 32 31 29 31 32 34 37 37 39 42 40 41 40 40 41 39 39 38 38 38 40 41 39 38
65 43 57 53 64 60 54 52 52 51 50 47 46 46 44 41 39 37 36 35 33 33 34 37 40 41 43 45 46 46 47 47 45 43 41 41 41 41 43 47 45 39 39
61 58 51 48 51 66 60 52 52 53 53 52 51 49 47 43 42 41 39 38 37 36 37 41 45 47 48 49 51 52 49 48 44 42 44 45 45 46 49 44 40 40 39
67 63 63 54 55 64 65 61 57 59 58 56 51 49 48 44 43 43 42 41 41 39 41 45 47 47 49 51 53 52 52 47 43 44 45 45 46 47 41 42 41 42 43
66 67 64 68 52 45 65 62 62 55 52 50 49 49 49 49 46 47 44 43 42 42 45 48 46 45 48 46 45 40 39 41 43 42 38 37 37 38 41 42 41 44 48
67 64 67 63 60 48 59 61 61 62 55 56 54 53 53 51 50 49 47 46 45 46 45 39 43 46 36 32 33 37 37 34 36 37 36 38 40 44 46 48 50 52 54
69 66 66 66 64 56 54 66 68 64 61 59 54 52 52 53 52 51 49 48 49 49 48 46 40 40 37 33 37 36 33 35 37 39 40 42 45 48 52 54 55 57 59
Wind_Direction
230 225 221 223 218 212 207 199 191 186 180 178 176 169 166 166 169 164 154 128 89 42 19 7 3 7 17 31 45 57 48 33 21 9 3 3 8 10 18 37 47 49 51
234 229 227 225 219 213 207 202 197 188 183 179 179 177 175 178 179 173 171 144 52 22 9 3 11 21 25 33 44 53 36 22 23 22 20 26 27 30 43 44 47 50 47
234 226 227 224 218 212 207 204 199 193 186 183 184 183 182 186 184 183 187 209 356 4 4 6 11 17 14 28 35 38 8 15 18 20 29 38 42 41 38 42 45 43 37
236 226 223 226 218 212 207 205 201 195 191 187 187 187 189 190 194 203 215 264 326 345 358 5 6 1 4 353 322 276 309 341 360 17 29 33 35 35 35 35 35 32 26
227 228 219 221 216 213 211 208 203 197 193 191 189 190 193 200 210 219 236 259 287 318 347 357 349 343 347 339 296 259 278 306 330 358 20 26 30 29 30 31 29 26 20
221 224 221 217 218 215 212 209 203 198 194 193 191 195 202 210 220 229 236 248 265 295 333 342 333 323 332 331 307 276 267 289 306 332 354 11 15 17 13 18 18 14 10
219 221 219 217 215 219 216 209 204 200 196 192 196 200 210 216 224 230 238 252 266 282 299 317 320 312 322 328 317 294 276 278 295 315 331 349 354 357 357 3 5 3 1
215 217 218 220 215 216 218 210 204 200 197 196 197 208 216 220 225 230 237 248 265 280 293 303 317 307 309 321 327 309 288 280 288 304 316 327 333 347 349 349 350 352 354
219 217 221 222 219 215 214 211 205 201 198 196 202 210 216 220 225 228 234 244 258 272 284 299 301 306 306 314 323 323 306 295 290 294 303 312 324 333 341 342 337 340 344
219 225 224 220 220 215 210 209 205 202 200 199 205 205 208 210 213 222 233 243 256 265 278 290 298 303 301 309 318 326 320 305 304 293 297 307 315 322 326 331 329 331 337
214 218 222 220 219 216 211 208 206 203 201 204 206 205 206 205 207 212 223 237 252 266 282 300 312 309 304 303 312 325 328 318 307 308 299 305 310 313 320 326 325 327 330
208 211 214 218 219 215 213 208 208 205 202 206 209 208 209 205 209 213 219 226 240 260 281 297 307 310 309 312 319 318 319 325 323 314 307 307 310 315 324 325 324 324 324
210 210 211 211 216 212 212 210 209 208 205 209 214 212 218 211 215 216 217 227 236 257 278 294 302 304 310 315 316 318 321 318 314 315 315 315 315 317 317 318 317 319 322
213 213 213 209 213 211 210 212 211 210 209 213 217 214 218 216 217 219 219 224 242 267 284 293 295 300 305 308 314 316 317 317 316 314 311 311 311 313 312 310 310 313 316
213 219 217 215 211 210 211 211 212 212 213 214 217 218 216 219 217 217 216 225 245 267 285 298 297 293 292 296 302 309 315 317 317 314 312 313 316 318 316 313 309 309 310
217 216 220 219 219 214 211 214 213 213 216 217 218 217 217 219 221 217 221 235 259 270 282 287 295 296 293 296 301 304 309 311 310 310 310 310 312 314 316 315 312 308 305
216 213 218 218 216 216 214 215 213 214 217 219 219 219 218 223 225 226 233 244 261 274 286 293 289 294 297 297 300 303 304 305 306 307 306 306 308 312 310 309 309 308 307
214 212 212 216 218 213 214 216 215 215 219 220 222 223 223 225 229 234 239 248 257 270 282 287 287 288 291 297 301 301 302 301 301 300 301 303 305 307 309 304 304 304 304
213 213 210 214 217 217 215 216 216 218 219 223 225 226 229 231 233 240 246 254 260 270 285 286 287 286 285 287 292 293 299 299 299 297 297 297 296 300 308 306 303 302 302
213 212 210 214 217 218 218 215 216 219 220 223 227 230 232 236 239 243 249 255 258 269 284 287 288 293 290 288 294 296 293 296 293 295 293 293 292 295 302 303 302 298 297
236 232 207 218 215 222 222 219 219 220 222 225 227 231 234 237 242 246 250 255 260 268 280 287 289 290 291 290 289 292 293 292 290 288 287 288 288 291 291 298 296 293 296
237 233 222 216 212 216 219 220 221 221 223 224 228 231 235 237 242 247 251 255 261 267 280 285 286 288 289 287 288 288 289 290 287 284 285 286 287 290 293 295 294 294 294
235 232 231 215 212 214 219 215 218 221 223 226 229 234 238 239 241 245 249 253 260 269 280 283 284 285 286 287 284 288 284 286 283 286 283 284 286 290 291 292 291 291 289
235 239 239 235 216 226 217 220 217 221 225 229 232 236 238 239 242 245 249 254 258 271 280 279 281 283 285 283 283 284 283 281 286 286 287 285 286 288 290 290 289 287 289
236 237 238 241 229 230 217 218 220 219 219 226 228 232 237 241 244 247 249 252 259 272 276 283 281 277 275 280 280 282 281 283 287 288 288 288 289 288 288 288 287 285 285
237 237 239 238 239 229 222 217 220 223 219 222 227 232 237 241 243 246 249 255 262 271 269 282 284 273 275 274 275 275 281 282 284 285 284 284 287 290 290 290 289 289 288